Location: Suiattle Valley
(48.3620°N, 121.4180°W)
Time: 12:53:45
(UTC-08:00)

OTV 5 (USA 277) - Visible Passes

Search period start: 20 January 2018 00:00
Search period end: 30 January 2018 00:00
Orbit: 404 x 417 km, 43.0° (Epoch: 07 September)

Date Brightness Start Highest point End Pass type
(mag) Time Alt. Az. Time Alt. Az. Time Alt. Az.
23 Jan ? 19:34:33 10° SW 19:34:47 11° SW 19:34:47 11° SW visible
24 Jan ? 18:43:55 10° SSW 18:46:14 19° SSE 18:46:14 19° SSE visible
25 Jan ? 17:53:30 10° S 17:55:27 15° SSE 17:57:25 10° ESE visible
25 Jan ? 19:29:11 10° SW 19:30:25 19° SW 19:30:25 19° SW visible
26 Jan ? 18:38:19 10° SW 18:41:13 27° SSE 18:41:49 25° SSE visible
27 Jan ? 17:47:33 10° SW 17:50:17 23° SSE 17:53:00 10° ESE visible
27 Jan ? 19:24:04 10° WSW 19:25:57 25° SW 19:25:57 25° SW visible
28 Jan ? 18:33:06 10° WSW 18:36:10 32° S 18:37:20 25° SE visible
29 Jan ? 17:42:12 10° SW 17:45:12 30° S 17:48:13 10° ESE visible
29 Jan ? 19:19:07 10° WSW 19:21:29 27° SSW 19:21:29 27° SSW visible
